Home > Time Zones > World Clock > Weather > Russia > Ufa > Past weeks

Flag for Russia Weather past 2 weeks in Ufa, Russia

Now
45 °F

Passing clouds.


Feels Like: 41 °F
Forecast: 35 / 41 °F
Wind: 6 mph from South

Location: Ufa


UV Index: 0 (Low)

Visibility: N/A


Pressure: 30.33 "Hg

Humidity: 66%

Dew point: 34 °F

Location of UfaLocation

Historic Weather in Ufa

°F

Ufa temperature yesterday

Maximum temperature yesterday: 57 °F (at 4:30 PM)
Minimum temperature yesterday: 39 °F (at 4:00 AM)
Average temperature yesterday: 47 °F

Past Weeks' High & Low Weather Summary

 TemperatureHumidityPressure
High57 °F (Apr 16, 4:30 PM)100% (Apr 7, 1:30 PM)30.57 "Hg (Apr 7, 1:30 PM)
Low16 °F (Apr 11, 7:30 AM)35% (Apr 14, 5:30 PM)29.50 "Hg (Apr 2, 7:00 PM)
Average33 °F71%30.01 "Hg
* Reported Midnight between Apr 1 and Apr 2 — Apr 17 12:30 AM, Ufa, Weather by CustomWeather, © 2014

Note: Actual official high and low records may vary slightly from our data, if they occured in-between our weather recording intervals... More about our weather records

Advertising

Historic Weather Conditions — Data for Previous 24 hours

 ConditionsComfort  
Time TempWeatherWind HumidityBarometerVisibility
12:30 AM
Apr 17
46 °FPassing clouds.6 mph62%30.33 "HgN/A
12:00 AM46 °FPassing clouds.6 mph66%30.33 "HgN/A
11:30 PM
Apr 16
46 °FPassing clouds.3 mph66%30.33 "HgN/A
11:00 PM45 °FPassing clouds.3 mph71%30.33 "HgN/A
10:30 PM46 °FMostly cloudy.6 mph62%30.33 "HgN/A
10:00 PM46 °FMostly cloudy.6 mph62%30.33 "HgN/A
9:30 PM46 °FMostly cloudy.3 mph62%30.36 "HgN/A
9:00 PM48 °FMostly cloudy.3 mph62%30.33 "HgN/A
8:30 PM52 °FMostly cloudy.6 mph54%30.36 "HgN/A
8:00 PM54 °FMostly cloudy.6 mph47%30.36 "HgN/A
7:00 PM55 °FMostly cloudy.8 mph44%30.36 "HgN/A
6:30 PM55 °FSunny.8 mph44%30.36 "Hg10 mi
6:00 PM57 °FPassing clouds.8 mph41%30.36 "HgN/A
5:30 PM57 °FPassing clouds.8 mph39%30.36 "HgN/A
5:00 PM57 °FPassing clouds.6 mph39%30.36 "HgN/A
4:30 PM57 °FPassing clouds.6 mph36%30.36 "HgN/A
4:00 PM55 °FPassing clouds.8 mph41%30.36 "HgN/A
3:30 PM55 °FPassing clouds.3 mph41%30.39 "HgN/A
3:00 PM54 °FPassing clouds.3 mph44%30.39 "HgN/A
2:30 PM54 °FPassing clouds.6 mph44%30.39 "HgN/A
2:00 PM52 °FPartly sunny.3 mph47%30.39 "HgN/A
1:30 PM52 °FPartly sunny.3 mph47%30.39 "HgN/A
1:00 PM50 °FPartly sunny.6 mph50%30.39 "HgN/A
12:30 PM50 °FPartly sunny.3 mph50%30.39 "HgN/A
12:00 PM48 °FPartly sunny.3 mph54%30.39 "HgN/A
11:30 AM46 °FPartly sunny.3 mph57%30.39 "HgN/A
11:00 AM45 °FPartly sunny.3 mph61%30.39 "HgN/A
10:30 AM43 °FPartly sunny.1 mph66%30.39 "HgN/A
10:00 AM41 °FPartly sunny.No wind70%30.39 "HgN/A
9:30 AM39 °FPartly sunny.1 mph75%30.39 "HgN/A
9:00 AM41 °FBroken clouds.No wind70%30.39 "HgN/A
8:30 AM39 °FBroken clouds.No wind70%30.36 "HgN/A
8:00 AM39 °FBroken clouds.No wind70%30.36 "HgN/A
7:30 AM39 °FBroken clouds.3 mph70%30.36 "HgN/A
7:00 AM41 °FPartly cloudy.No wind66%30.36 "HgN/A
6:30 AM41 °FPartly cloudy.No wind66%30.36 "HgN/A
5:00 AM41 °FPartly cloudy.3 mph66%30.36 "HgN/A
4:30 AM39 °FPartly cloudy.3 mph70%30.33 "HgN/A
4:00 AM39 °FPartly cloudy.3 mph70%30.33 "HgN/A
3:30 AM41 °FPartly cloudy.8 mph66%30.33 "HgN/A
2:30 AM41 °FPartly cloudy.10 mph61%30.33 "HgN/A
2:00 AM43 °FPartly cloudy.10 mph61%30.33 "HgN/A
1:30 AM43 °FPartly cloudy.8 mph61%30.33 "HgN/A
1:00 AM43 °FPartly cloudy.6 mph61%30.33 "HgN/A
Weather by CustomWeather, © 2014

See weather overview